Presure
117 158 158 130 149 100 147 157 156 136 159 173 164 145 167 198 168 162 184 203 167 184 187 180 168 173 176 175 185 176 175 168 176 178 169 205 195 221 221 222 188 208 201 189 197
159 155 153 136 147 141 111 170 166 152 173 181 147 177 150 167 180 138 158 137 199 179 153 164 180 179 137 156 178 175 169 171 178 168 175 169 169 221 146 198 205 196 201 193 190
134 130 122 161 162 160 87 109 149 171 146 172 148 177 141 164 151 183 209 202 188 152 186 175 179 176 167 165 181 186 177 195 181 128 146 142 201 176 234 198 193 186 184 177 166
134 170 156 166 152 145 154 169 166 179 132 184 167 152 182 152 183 167 175 183 156 144 198 170 176 186 169 171 129 160 157 159 171 145 167 162 133 190 162 174 179 210 207 186 173
146 170 163 125 160 123 156 142 171 147 133 175 181 152 165 180 150 174 162 140 163 167 186 177 186 158 155 175 178 147 176 164 165 167 185 177 158 137 187 165 156 192 186 168 186
159 171 165 156 165 164 165 152 147 165 155 169 149 175 149 159 143 137 151 172 176 157 176 175 179 168 153 172 165 170 154 182 166 163 178 143 171 153 164 165 173 184 188 201 155
171 173 174 164 169 132 162 110 182 145 164 178 163 169 167 169 146 177 143 151 158 191 181 142 126 142 172 179 176 157 171 143 182 166 181 174 169 189 153 179 161 158 186 142 174
182 166 137 167 181 172 187 160 159 166 144 157 174 158 178 120 172 153 178 146 159 183 182 129 156 168 168 174 169 177 180 175 175 179 176 153 168 182 176 146 170 181 140 148 138
195 150 187 175 190 182 173 183 153 153 156 167 151 183 179 173 174 145 159 176 163 152 186 162 173 153 176 178 172 178 173 142 167 174 138 153 170 176 166 174 164 188 160 173 181
155 170 152 161 139 184 163 184 171 157 181 170 175 167 141 176 182 165 154 169 137 179 135 187 177 152 176 152 171 175 162 175 173 171 170 171 167 152 176 151 171 162 161 173 169
193 155 128 154 174 183 162 173 158 151 172 182 184 150 179 139 146 166 179 171 179 184 156 171 164 180 160 170 173 159 171 157 168 169 173 176 169 173 135 175 141 168 146 166 166
160 159 182 175 137 198 183 161 166 180 147 148 155 160 174 184 150 162 178 178 178 142 151 166 166 157 159 167 148 164 158 160 175 163 167 173 169 166 179 142 153 138 168 157 177
175 157 169 187 151 151 177 158 187 147 188 173 182 165 192 166 159 168 167 164 139 159 152 190 181 151 156 160 163 165 167 168 170 173 152 163 169 163 170 170 158 168 153 173 156
158 187 192 163 199 163 175 138 188 155 156 169 156 179 152 159 168 170 144 134 179 176 183 150 165 155 168 185 163 145 178 171 164 167 180 163 176 169 175 163 157 192 159 174 174
186 155 185 203 199 164 194 201 198 182 170 140 135 153 153 175 160 153 158 159 168 170 167 170 132 171 166 186 167 183 136 163 188 196 196 167 173 173 153 127 154 169 164 163 170
144 176 193 154 188 159 164 192 171 156 161 176 189 198 164 185 168 178 188 186 158 153 167 144 175 172 181 179 173 157 185 177 162 163 161 178 179 180 103 162 164 168 168 169 154
179 187 199 180 176 162 184 187 186 187 172 189 172 167 132 159 183 178 188 183 184 179 143 132 178 147 181 163 172 169 176 168 175 180 171 173 178 173 171 159 167 169 134 158 161
186 176 170 162 196 192 181 169 206 208 195 189 185 199 152 176 144 174 178 211 185 189 190 180 176 180 159 178 183 187 175 185 166 159 182 169 171 166 170 166 160 161 177 172 166
178 204 180 211 221 220 211 216 215 202 203 202 225 218 188 190 181 198 213 198 177 193 188 164 188 193 188 175 174 186 186 174 171 174 175 180 174 81 170 161 174 169 167 160 172
208 203 201 209 221 227 224 208 206 219 224 221 226 213 225 228 229 231 202 208 209 157 189 185 171 180 171 178 175 179 174 175 178 185 174 167 169 182 183 170 169 176 174 169 170
213 211 222 221 211 222 235 209 224 227 219 227 222 233 230 239 244 231 227 240 226 220 240 188 183 182 167 176 175 176 175 185 184 173 174 173 166 178 176 171 184 171 176 194 194
198 216 203 216 220 216 200 220 231 217 238 210 246 234 235 243 262 245 239 247 237 232 234 237 235 225 176 170 176 191 177 172 177 188 185 177 179 163 169 187 186 95 181 209 224
205 218 207 222 231 228 209 226 207 220 214 245 259 248 222 254 222 235 214 236 218 223 227 235 238 236 234 228 234 234 180 176 190 190 188 168 177 181 145 206 199 231 198 208 201
200 233 237 212 213 228 216 235 244 225 215 319 259 322 317 319 321 319 323 289 286 307 235 240 240 242 214 194 194 207 219 236 243 232 225 229 223 220 224 222 229 228 221 228 230
215 230 240 243 246 262 276 314 315 316 313 317 317 326 336 338 326 323 318 312 310 302 307 303 290 287 218 237 219 220 206 213 205 222 227 205 216 232 228 226 220 227 231 233 272
235 240 255 282 284 324 327 317 312 309 310 317 356 392 384 401 370 354 335 320 309 305 307 305 303 294 288 264 229 234 220 207 213 218 226 218 220 216 226 227 231 227 224 242 293
304 315 318 310 313 317 307 298 304 304 367 351 357 362 359 350 343 338 330 319 308 299 303 305 303 298 297 278 270 247 230 224 211 222 241 230 226 232 263 245 236 287 239 300 304
Wind_Speed
42 74 76 40 66 44 68 78 77 62 70 63 64 32 52 45 47 50 38 44 55 44 40 41 47 44 47 47 40 45 44 45 41 37 47 44 41 35 36 39 48 46 51 57 53
79 78 80 63 60 71 66 83 82 65 80 72 25 56 32 47 41 36 38 35 40 42 54 50 43 43 46 44 42 40 42 42 39 44 38 46 48 35 43 36 36 40 43 48 51
55 50 53 85 83 82 40 60 56 87 36 76 45 71 46 49 26 38 38 41 41 60 42 43 42 43 45 48 41 42 37 40 34 40 61 54 35 42 37 33 38 41 45 51 62
59 83 88 88 85 65 81 86 84 83 52 69 71 64 72 45 64 38 51 37 37 60 40 40 38 40 43 47 54 54 53 53 41 66 41 57 46 32 52 43 36 40 46 49 55
67 86 88 69 88 57 83 54 87 56 80 77 74 63 68 71 39 59 45 58 51 41 41 38 39 51 55 42 46 52 44 53 44 46 39 36 59 50 37 50 57 33 39 47 45
90 89 89 87 89 91 90 82 55 85 62 82 44 78 42 54 59 59 64 53 51 57 45 43 45 41 58 44 47 51 57 50 53 59 41 48 44 65 43 47 54 39 41 44 45
96 94 89 91 90 54 93 59 82 43 84 81 78 82 74 69 48 59 60 41 64 45 47 65 62 61 47 49 49 54 44 67 53 52 49 34 50 52 62 47 60 61 51 50 45
92 92 69 88 89 91 86 82 82 89 45 68 79 65 80 74 72 48 65 70 59 57 50 68 44 49 49 54 46 51 57 56 44 55 50 57 54 56 50 67 47 58 51 61 53
79 78 87 91 79 86 89 87 80 66 67 85 76 82 83 73 77 54 69 63 59 66 60 46 51 68 60 57 52 59 55 66 46 52 65 57 53 54 56 57 56 63 58 51 61
99 86 83 98 51 83 79 84 81 68 87 89 86 82 72 76 74 72 56 70 70 68 74 65 65 71 62 47 56 59 42 64 65 51 51 48 52 65 67 63 59 63 64 63 57
80 75 63 89 85 85 89 87 77 69 87 90 86 52 87 74 43 81 75 75 77 70 50 67 60 76 39 56 63 49 63 60 64 61 59 69 66 66 67 69 61 65 70 61 65
92 96 78 95 53 77 73 66 89 83 52 54 70 58 79 80 66 76 85 80 76 74 51 74 68 60 57 59 68 57 61 59 75 59 61 68 65 62 76 72 64 66 62 63 79
99 94 98 87 75 73 79 87 81 75 89 88 87 80 80 74 82 92 77 72 69 72 78 79 78 83 58 53 63 64 66 69 71 78 67 59 74 64 69 78 70 69 65 73 65
81 88 96 88 86 104 95 78 91 75 65 92 88 93 64 70 87 93 74 77 80 85 90 57 81 68 79 81 69 59 80 73 71 74 87 68 76 78 76 67 65 89 70 80 79
99 83 85 90 92 114 94 92 85 92 90 62 71 86 74 100 83 77 85 79 88 89 88 87 78 87 79 91 77 88 76 73 88 88 88 73 81 84 66 48 65 74 70 72 81
66 112 95 87 88 96 103 102 106 82 71 109 99 92 92 97 98 101 100 102 86 88 89 80 94 84 94 93 85 69 88 89 74 74 67 84 85 82 43 80 80 81 79 80 68
104 92 101 100 111 83 102 111 95 102 104 105 107 101 78 95 104 105 104 108 109 106 83 77 94 82 100 78 93 89 91 84 89 89 84 85 81 85 89 86 90 90 62 79 77
109 112 119 103 106 109 117 101 107 103 107 115 112 108 88 106 85 103 106 106 113 116 115 105 97 105 84 101 105 103 97 99 88 74 94 83 87 89 94 95 88 84 100 98 92
120 105 117 112 112 114 112 111 105 108 112 116 116 114 116 118 102 111 106 101 109 114 120 90 108 106 106 108 107 105 106 104 97 96 96 95 94 27 101 91 101 98 95 83 106
101 102 109 109 114 117 114 108 108 109 111 112 113 118 113 114 115 115 111 107 112 89 122 118 101 111 105 111 112 114 107 108 110 105 96 89 94 101 106 103 98 107 108 101 102
102 103 108 110 111 111 110 111 108 110 114 113 113 115 113 110 111 115 110 110 114 114 116 114 118 113 104 114 118 114 117 114 116 105 106 105 96 110 111 102 115 101 111 113 114
110 107 112 112 116 116 112 114 115 107 118 114 117 116 114 116 113 113 109 104 109 114 114 113 116 113 116 115 124 121 122 110 116 116 116 110 106 108 103 120 120 27 121 112 114
115 110 114 114 116 116 119 118 112 119 119 123 122 118 117 115 113 114 102 109 107 111 110 111 114 111 108 109 112 113 121 109 115 114 109 92 106 115 54 112 113 107 86 95 93
115 120 124 113 117 122 120 121 123 124 117 93 109 90 91 88 87 91 90 94 91 84 112 110 108 110 93 86 87 94 95 106 106 96 95 94 98 101 101 102 104 102 103 105 106
114 125 128 130 129 133 128 98 91 89 90 87 90 84 80 83 84 85 83 85 81 80 81 83 87 88 100 105 100 103 87 86 86 105 108 88 88 109 106 101 97 102 102 111 102
128 128 134 125 125 92 83 80 81 82 86 85 71 51 54 59 60 65 72 77 77 74 75 77 76 78 81 91 105 97 95 93 100 102 101 92 92 93 98 99 107 99 100 105 79
107 98 82 88 88 85 81 80 79 81 53 51 46 40 42 45 50 55 60 62 66 68 68 70 71 72 73 80 84 88 94 101 95 106 100 102 99 103 95 98 94 81 97 71 62
Wind_Direction
261 288 290 274 295 280 290 297 299 272 298 298 302 273 303 295 273 282 290 284 279 266 261 261 261 261 263 263 269 264 263 268 281 285 277 284 284 283 278 273 274 272 269 270 271
282 288 290 270 273 286 265 289 292 298 295 295 263 293 285 301 295 286 271 276 275 267 279 264 261 261 262 265 261 261 263 262 279 291 286 284 278 296 287 286 279 276 273 269 271
291 286 264 280 282 285 267 276 290 290 290 293 267 299 267 298 253 299 277 280 273 281 271 268 265 273 258 272 266 275 268 278 290 275 282 287 299 282 286 284 281 275 273 272 274
286 268 280 274 283 274 287 284 288 286 256 284 295 285 295 291 303 260 307 273 289 281 272 260 268 272 264 263 289 259 261 259 273 277 276 275 287 305 279 293 279 284 275 272 272
272 268 275 276 281 260 286 281 285 262 285 288 287 277 299 295 240 298 281 258 290 279 273 268 271 258 271 279 276 282 277 260 265 289 291 293 281 290 307 272 284 279 279 280 276
277 269 272 281 277 279 281 277 272 286 278 289 285 290 263 286 290 256 269 291 280 279 287 270 274 270 269 276 263 274 273 284 270 274 280 282 288 279 301 299 291 297 290 289 278
271 273 269 274 275 265 280 278 275 276 287 281 292 292 290 292 263 284 252 263 275 274 271 257 285 264 283 277 277 262 284 273 290 271 297 274 282 306 268 304 273 283 300 292 270
267 271 267 275 268 272 270 287 278 281 274 286 278 291 284 273 287 277 291 272 269 282 272 278 284 285 282 280 281 285 282 288 287 293 297 263 293 303 296 274 285 301 280 290 288
262 284 265 273 264 267 271 269 269 266 265 280 279 278 280 286 284 261 279 278 291 283 273 287 275 275 280 281 285 283 282 272 286 292 279 283 292 288 281 295 285 295 272 284 296
281 278 287 282 272 262 274 264 267 265 269 276 275 283 264 283 272 274 292 288 255 279 259 271 275 275 279 278 284 285 282 287 288 287 294 291 284 274 296 285 291 285 282 294 286
257 279 252 287 264 263 280 265 287 271 272 269 267 283 273 260 268 268 275 283 274 269 277 283 274 271 286 280 279 288 289 274 287 291 286 287 281 287 285 291 287 290 282 293 292
279 276 259 266 253 257 260 273 279 262 280 279 278 273 268 273 286 278 274 273 272 266 275 272 282 279 271 283 270 282 280 280 281 282 285 285 283 285 290 274 277 283 289 288 291
266 277 273 275 282 284 269 286 255 261 257 268 262 262 258 277 269 275 280 281 258 267 269 262 265 271 274 283 277 277 281 281 280 278 274 278 280 282 284 281 283 287 282 290 280
279 265 264 281 265 278 263 264 267 276 287 268 288 269 278 278 276 274 263 259 272 270 262 270 268 274 278 265 278 261 271 275 278 277 274 282 278 281 282 281 277 281 277 287 290
257 283 273 271 268 278 262 265 258 274 277 246 250 282 272 272 268 281 283 282 283 277 279 262 267 272 281 264 279 267 268 278 270 270 271 282 280 277 286 275 288 289 285 288 292
270 271 273 281 265 279 278 268 271 273 273 269 259 256 265 257 279 267 255 261 268 263 278 260 273 266 264 267 277 273 268 269 279 279 280 276 279 275 274 289 289 291 292 294 286
274 266 267 270 271 259 272 263 264 262 271 263 276 269 263 264 259 264 261 261 262 267 261 271 264 267 263 279 276 279 273 273 274 270 279 280 278 281 278 288 287 289 283 287 292
265 271 274 279 263 264 266 277 271 270 265 264 269 261 256 276 268 269 265 256 261 259 258 265 267 262 273 268 263 261 275 265 277 278 269 279 284 284 280 284 287 290 283 287 294
269 267 271 269 272 270 267 269 270 266 264 264 267 263 269 266 259 260 253 256 262 262 261 259 258 255 258 271 274 263 264 275 279 277 277 273 278 283 281 285 282 285 287 290 291
266 270 266 269 270 274 270 264 266 268 267 268 270 268 268 266 266 264 270 256 259 270 258 262 270 267 273 269 273 271 274 276 276 273 278 280 283 276 278 284 287 286 287 290 292
267 268 271 271 267 271 275 268 270 270 266 266 266 268 268 269 268 264 266 264 262 259 264 259 260 261 271 269 270 270 272 270 271 278 279 280 284 279 283 285 282 288 287 285 287
266 268 265 268 274 271 272 267 270 276 273 271 272 268 267 268 269 267 266 265 264 264 263 261 261 262 255 264 264 261 268 273 274 270 272 277 275 280 282 278 280 272 283 285 286
269 269 267 269 272 270 268 268 275 267 273 274 274 268 270 269 273 269 272 265 267 266 265 263 265 265 264 266 269 270 263 268 272 273 276 279 276 276 276 276 279 282 286 287 288
266 273 275 271 271 272 268 271 274 273 274 274 271 271 271 268 267 268 268 266 266 264 263 262 261 262 267 266 264 268 271 272 274 277 274 278 276 278 279 280 284 285 285 290 294
269 272 273 274 274 275 276 275 275 275 273 270 270 270 270 266 264 263 263 264 263 264 263 263 263 261 264 262 267 268 271 272 266 275 276 268 278 279 280 282 283 286 291 295 295
271 272 273 273 272 273 270 271 271 271 272 273 271 261 259 256 254 252 255 257 260 262 261 262 261 261 260 262 265 266 268 270 272 273 276 276 279 276 282 284 286 290 292 293 292
272 271 264 266 267 270 274 272 272 273 258 260 265 259 259 256 252 252 253 255 256 258 260 261 262 262 262 261 260 262 264 266 269 273 275 277 277 279 282 281 285 287 288 291 293